When you browse on this site, cookies collect data to enhance your experience and personalize the content and advertising you see.
Visit our Privacy Policy to learn more. By continuing to use the site, you agree to this use of cookies and data.

Stündliche Wetter Linz

Heute, 21 September, Montag

Zeit Temperatur Niederschläge Wind Luftdruck Luftfeuchtigkeit
00:00 +12°C° 0 mm 1 m/S 733 mmHg 80%
01:00 +12°C° 0 mm 1 m/S 733 mmHg 81%
02:00 +11°C° 0 mm 1 m/S 733 mmHg 83%
03:00 +10°C° 0 mm 0 m/S 733 mmHg 84%
04:00 +10°C° 0 mm 0 m/S 733 mmHg 86%
05:00 +10°C° 0 mm 0 m/S 733 mmHg 85%
06:00 +11°C° 0 mm 0 m/S 733 mmHg 84%
07:00 +11°C° 0 mm 0 m/S 733 mmHg 83%
08:00 +14°C° 0 mm 1 m/S 733 mmHg 77%
09:00 +16°C° 0 mm 1 m/S 733 mmHg 71%
10:00 +20°C° 0 mm 1 m/S 733 mmHg 64%
11:00 +21°C° 0 mm 1 m/S 733 mmHg 62%
12:00 +22°C° 0 mm 1 m/S 733 mmHg 60%
13:00 +23°C° 0 mm 2 m/S 733 mmHg 57%
14:00 +23°C° 0 mm 2 m/S 733 mmHg 60%
15:00 +23°C° 0 mm 1 m/S 733 mmHg 62%
16:00 +23°C° 0 mm 1 m/S 733 mmHg 64%
17:00 +21°C° 0 mm 1 m/S 732 mmHg 71%
18:00 +20°C° 0 mm 1 m/S 732 mmHg 78%
19:00 +18°C° 0 mm 1 m/S 732 mmHg 85%
20:00 +16°C° 0 mm 1 m/S 733 mmHg 85%
21:00 +16°C° 0 mm 1 m/S 733 mmHg 86%
22:00 +15°C° 0 mm 0 m/S 733 mmHg 86%
23:00 +14°C° 0 mm 0 m/S 733 mmHg 87%

Morgen, 22 September, Dienstag

Zeit Temperatur Niederschläge Wind Luftdruck Luftfeuchtigkeit
00:00 +14°C° 0 mm 0 m/S 732 mmHg 88%
01:00 +14°C° 0 mm 0 m/S 732 mmHg 89%
02:00 +13°C° 0 mm 0 m/S 732 mmHg 90%
03:00 +13°C° 0 mm 0 m/S 732 mmHg 91%
04:00 +13°C° 0 mm 0 m/S 732 mmHg 92%
05:00 +13°C° 0 mm 0 m/S 732 mmHg 91%
06:00 +14°C° 0 mm 0 m/S 732 mmHg 90%
07:00 +14°C° 0 mm 0 m/S 732 mmHg 89%
08:00 +16°C° 0 mm 0 m/S 732 mmHg 83%
09:00 +20°C° 0 mm 1 m/S 732 mmHg 76%
10:00 +22°C° 0 mm 1 m/S 732 mmHg 70%
11:00 +23°C° 0 mm 1 m/S 731 mmHg 67%
12:00 +24°C° 0 mm 1 m/S 731 mmHg 64%
13:00 +25°C° 0 mm 1 m/S 731 mmHg 61%
14:00 +25°C° 0 mm 1 m/S 730 mmHg 62%
15:00 +25°C° 0 mm 1 m/S 730 mmHg 64%
16:00 +25°C° 0 mm 1 m/S 729 mmHg 65%
17:00 +23°C° 0 mm 1 m/S 729 mmHg 72%
18:00 +21°C° 0 mm 1 m/S 729 mmHg 78%
19:00 +19°C° 0 mm 1 m/S 729 mmHg 85%
20:00 +19°C° 0.2 mm 1 m/S 729 mmHg 87%
21:00 +18°C° 0.2 mm 1 m/S 729 mmHg 88%
22:00 +18°C° 0.2 mm 1 m/S 729 mmHg 90%
23:00 +18°C° 0.5 mm 1 m/S 728 mmHg 91%

übermorgen, 23 September, Mittwoch

Zeit Temperatur Niederschläge Wind Luftdruck Luftfeuchtigkeit
00:00 +16°C° 0.5 mm 1 m/S 728 mmHg 91%
01:00 +16°C° 0.5 mm 1 m/S 728 mmHg 92%
02:00 +16°C° 0.6 mm 1 m/S 728 mmHg 92%
03:00 +16°C° 0.6 mm 1 m/S 728 mmHg 93%
04:00 +16°C° 0.6 mm 1 m/S 728 mmHg 93%
05:00 +16°C° 0.5 mm 1 m/S 728 mmHg 93%
06:00 +16°C° 0.5 mm 1 m/S 728 mmHg 93%
07:00 +16°C° 0.5 mm 1 m/S 728 mmHg 93%
08:00 +17°C° 1 mm 2 m/S 728 mmHg 94%
09:00 +17°C° 1 mm 2 m/S 728 mmHg 94%
10:00 +17°C° 1 mm 2 m/S 728 mmHg 94%
11:00 +17°C° 0.7 mm 2 m/S 728 mmHg 93%
12:00 +18°C° 0.7 mm 2 m/S 728 mmHg 92%
13:00 +18°C° 0.7 mm 2 m/S 728 mmHg 92%
14:00 +18°C° 0.4 mm 2 m/S 728 mmHg 91%
15:00 +19°C° 0.4 mm 1 m/S 728 mmHg 90%
16:00 +19°C° 0.4 mm 1 m/S 728 mmHg 89%
17:00 +19°C° 0.2 mm 1 m/S 728 mmHg 91%
18:00 +18°C° 0.2 mm 1 m/S 728 mmHg 92%
19:00 +16°C° 0.2 mm 1 m/S 728 mmHg 93%
20:00 +16°C° 0 mm 1 m/S 728 mmHg 93%
21:00 +16°C° 0 mm 1 m/S 728 mmHg 92%
22:00 +15°C° 0 mm 1 m/S 729 mmHg 92%
23:00 +14°C° 0 mm 0 m/S 729 mmHg 92%

24 September, Donnerstag

Zeit Temperatur Niederschläge Wind Luftdruck Luftfeuchtigkeit
00:00 +13°C° 0 mm 0 m/S 729 mmHg 93%
01:00 +13°C° 0 mm 0 m/S 729 mmHg 93%
02:00 +13°C° 0 mm 0 m/S 729 mmHg 93%
03:00 +13°C° 0 mm 0 m/S 729 mmHg 93%
04:00 +12°C° 0 mm 0 m/S 729 mmHg 93%
05:00 +13°C° 0 mm 0 m/S 729 mmHg 92%
06:00 +13°C° 0 mm 0 m/S 729 mmHg 91%
07:00 +14°C° 0 mm 0 m/S 730 mmHg 91%
08:00 +15°C° 0 mm 0 m/S 730 mmHg 84%
09:00 +17°C° 0 mm 0 m/S 730 mmHg 78%
10:00 +19°C° 0 mm 0 m/S 730 mmHg 72%
11:00 +22°C° 0 mm 1 m/S 730 mmHg 68%
12:00 +23°C° 0 mm 1 m/S 730 mmHg 65%
13:00 +24°C° 0 mm 1 m/S 730 mmHg 61%
14:00 +24°C° 0 mm 1 m/S 729 mmHg 63%
15:00 +24°C° 0 mm 1 m/S 729 mmHg 66%
16:00 +24°C° 0 mm 1 m/S 729 mmHg 68%
17:00 +22°C° 0 mm 1 m/S 729 mmHg 73%
18:00 +20°C° 0 mm 1 m/S 728 mmHg 78%
19:00 +18°C° 0 mm 1 m/S 728 mmHg 83%
20:00 +18°C° 0 mm 1 m/S 728 mmHg 83%
21:00 +16°C° 0 mm 1 m/S 728 mmHg 84%
22:00 +16°C° 0 mm 1 m/S 727 mmHg 84%
23:00 +15°C° 0 mm 1 m/S 727 mmHg 86%

25 September, Freitag

Zeit Temperatur Niederschläge Wind Luftdruck Luftfeuchtigkeit
00:00 +15°C° 0 mm 1 m/S 726 mmHg 88%
01:00 +13°C° 0 mm 0 m/S 725 mmHg 90%
02:00 +14°C° 0 mm 2 m/S 725 mmHg 91%
03:00 +13°C° 0 mm 3 m/S 725 mmHg 92%
04:00 +13°C° 0 mm 4 m/S 725 mmHg 93%
05:00 +13°C° 0.2 mm 4 m/S 725 mmHg 92%
06:00 +13°C° 0.2 mm 4 m/S 725 mmHg 91%
07:00 +14°C° 0.2 mm 4 m/S 725 mmHg 90%
08:00 +13°C° 1.2 mm 3 m/S 725 mmHg 92%
09:00 +13°C° 1.2 mm 3 m/S 725 mmHg 94%
10:00 +13°C° 1.2 mm 3 m/S 725 mmHg 95%
11:00 +12°C° 2.2 mm 4 m/S 725 mmHg 94%
12:00 +12°C° 2.2 mm 5 m/S 725 mmHg 94%
13:00 +10°C° 2.2 mm 6 m/S 725 mmHg 93%
14:00 +9°C° 2.2 mm 5 m/S 726 mmHg 93%
15:00 +10°C° 2.2 mm 4 m/S 726 mmHg 92%
16:00 +10°C° 2.2 mm 3 m/S 726 mmHg 92%
17:00 +9°C° 0.4 mm 3 m/S 726 mmHg 93%
18:00 +9°C° 0.4 mm 2 m/S 727 mmHg 93%
19:00 +10°C° 0.4 mm 1 m/S 727 mmHg 94%
20:00 +10°C° 0.2 mm 1 m/S 727 mmHg 93%
21:00 +10°C° 0.2 mm 1 m/S 727 mmHg 93%
22:00 +8°C° 0.2 mm 2 m/S 727 mmHg 93%
23:00 +8°C° 0.4 mm 2 m/S 727 mmHg 93%

26 September, Samstag

Zeit Temperatur Niederschläge Wind Luftdruck Luftfeuchtigkeit
00:00 +8°C° 0.4 mm 2 m/S 726 mmHg 93%
01:00 +8°C° 0.4 mm 2 m/S 726 mmHg 94%
02:00 +7°C° 0.7 mm 2 m/S 726 mmHg 94%
03:00 +7°C° 0.7 mm 3 m/S 726 mmHg 94%
04:00 +7°C° 0.7 mm 3 m/S 726 mmHg 94%
05:00 +7°C° 0.8 mm 3 m/S 726 mmHg 94%
06:00 +7°C° 0.8 mm 3 m/S 726 mmHg 94%
07:00 +5°C° 0.8 mm 3 m/S 726 mmHg 93%
08:00 +6°C° 0.5 mm 4 m/S 726 mmHg 92%
09:00 +6°C° 0.5 mm 4 m/S 727 mmHg 90%
10:00 +6°C° 0.5 mm 5 m/S 727 mmHg 88%
11:00 +7°C° 0.4 mm 5 m/S 727 mmHg 86%
12:00 +7°C° 0.4 mm 5 m/S 727 mmHg 83%
13:00 +8°C° 0.4 mm 6 m/S 727 mmHg 81%
14:00 +7°C° 0.3 mm 6 m/S 726 mmHg 82%
15:00 +7°C° 0.3 mm 6 m/S 726 mmHg 83%
16:00 +7°C° 0.3 mm 6 m/S 726 mmHg 84%
17:00 +5°C° 0.4 mm 6 m/S 726 mmHg 86%
18:00 +6°C° 0.4 mm 5 m/S 727 mmHg 88%
19:00 +6°C° 0.4 mm 5 m/S 727 mmHg 90%
20:00 +4°C° 0.6 mm 6 m/S 728 mmHg 91%
21:00 +4°C° 0.6 mm 6 m/S 728 mmHg 92%
22:00 +4°C° 0.6 mm 7 m/S 728 mmHg 93%
23:00 +4°C° 0.2 mm 6 m/S 728 mmHg 92%
Mehr zeigen